Ana Sayfa
METAR-TAF:

METAR-TAF

Havaalanları :

College Park, Maryland, Amerika Birleşik Devletleri

Enlem: 38-58-50N, Boylam: 076-55-20W, yükseklik: 15 m

Güncel hava durumu gözlemi

Rapor saat 18:36 UTC de 28 dakika önce yapıldı.
Rüzgar kuzeydan 5 kt
Sıcaklık 5°C
Nem 35%
Basınç 1029 hPa
Görüş mesafesi: 16.1 km
Açık gökyüzü

METAR: KCGS 071836Z AUTO 35005KT 10SM CLR 05/M09 A3040 RMK AO1 T00531090

Saat: 14:04 (19:04 UTC)


TAF: eksik

4.000'den fazla havaalanı için hava durumu gözlemleri ve tahminleri (METAR ve TAF raporları).

Kullanılabilir istasyonlar harita üzerinde sarı ve kırmızı noktalarla gösterilir.

İstasyonun adını görmek için fareyi noktanın üzerinde gezdirin.

Sonrasında hava gözlem ve tahminlerini görmek için tıklayın.

Haritayı değiştirmek için: yaklaştırmak için siyah artı işaretli yeşil düğmeye ve uzaklaştırmak için de eksi işaretli düğmeye hızla tıklayın; bitişik haritalar için yeşil okları kullanın.


METAR-TAF: